Weather in Ivankovo-Lenino

Russia / Chuvash Republic     54°43′02″N   46°41′17″E
temp.,
°C
wind,
m/s
gust,
m/s
humid.,
%
clouds,
%
prec.,
mm/h
press.,
hPa
HPBL,
m
10 april, sat
sat1000:00−2ne119944 0.0 102810
03:00−3nne2299100 0.0 102928
06:00−2ne2596100 0.0 1029141
09:00+2ne3892100 0.1 1028486
12:00+1nne3999100 1.3 1028410
15:00+2nne3899100 3.9 1027375
18:00+1ne2698100 1.6 1026282
21:00+1nne2699100 2.4 1026197
11 april, sun
sun1100:00+1n3699100 2.8 1025187
03:00+2n3899100 3.1 1026233
06:00+2n2799100 0.0 1028258
09:00+3n4796100 0.1 1029339
12:00+5n3592100 0.0 1030418
15:00+5ne2796100 0.8 1031310
18:00+4ne2698100 3.4 1033205
21:00+3ne1299100 5.9 103364
12 april, mon
mon1200:00+4ne2599100 3.1 1033186
03:00+3nne2599100 3.4 1034148
06:00+4ene3998100 0.3 1034273
09:00+6ne2697100 0.4 1035278
12:00+9ene478889 0.0 1034376
15:00+11e458299 0.0 1033421
18:00+10e379364 0.0 1033203
21:00+8ese2493100 0.0 103371
13 april, tue
tue1300:00+7ese229070 0.0 103310
03:00+7se228877 0.0 103211
06:00+7se2287100 0.0 103214
09:00+12sse366885 0.0 1032325
12:00+16sse464778 0.0 1030943
15:00+17sse464330 0.0 10291330
18:00+13se34635 0.0 102854
21:00+10sse337076 0.0 102939
14 april, wed
wed1400:00+8sse227426 0.0 102919
03:00+7sse227758 0.0 102915
06:00+7se2277100 0.0 102820
09:00+12sse246198 0.0 1028238
12:00+17sse354765 0.0 1026824
15:00+18sse453914 0.0 10251266
18:00+14se36555 0.0 102496
21:00+10sse226521 0.0 102436